Location: Rochester
(43.1610°N, 77.6109°W)
Time: 07:25:07
(UTC-05:00)

CUTE 1.7 + AOD 2 - Pass Details

Date: 22 October 2021
Orbit: 592 x 610 km, 97.6° (Epoch: 29 November)

Event Time Altitude Azimuth Distance (km) Brightness Sun altitude
Rises 06:45:47 0° 353° (N) 2,884 ? -9.3°
Reaches altitude 10° 06:48:52 10° 329° (NNW) 1,974 ? -8.7°
Maximum altitude 06:51:08 14° 297° (WNW) 1,706 ? -8.3°
Drops below altitude 10° 06:53:23 10° 265° (W) 1,965 ? -7.9°
Enters shadow 06:53:58 - 259° (W) 2,099 ? -7.8°
